Powrót do katalogu

FENGYUN 1C DEB

LostSSO
NORAD 38721·DEBRIS·🇨🇳 China

Wystrzelony May 10, 1999 z Taiyuan Satellite Launch Center

Loading…

Następne Przeloty (najbliższe 24 godziny)

TLE

NieaktualneSource: Space-Track

Epoka: Sep 29, 2022, 11:28 UTC

1 38721U 99025ETN 22272.47813170  .00003465  00000-0  16294-2 0  9994
2 38721  98.8885   3.3775 0078445 134.1911 226.5746 14.19021798675385

Śledź FENGYUN 1C DEB w czasie rzeczywistym z AllMySat

Download on the App Store